User: anonymous   Login
Location: Alphen aan den Rijn
(52.1277°N, 4.6689°E)
Time: 07:38:32
(UTC+01:00)
Language:

ISS - Orbit

View from above orbital plane
View from above orbital plane
View from above satellite
View from above satellite

Ground track
Ground track

The orbit data is extracted from the following two-line orbital elements,

1 25544U 98067A   21335.03552073  .00004629  00000-0  93029-4 0  9997
2 25544  51.6444 237.7255 0004300 263.5395 221.4759 15.48717824314451
Epoch (UTC): 01 December 2021 00:51:08
Eccentricity: 0.0004300
inclination: 51.6444°
perigee height: 417 km
apogee height: 423 km
right ascension of ascending node: 237.7255°
argument of perigee: 263.5395°
revolutions per day: 15.48717824
mean anomaly at epoch: 221.4759°
orbit number at epoch: 31445

The dashed part of the orbit path shows where the satellite is in the earth's shadow,  

DLR